Wind_Speed
28 24 22 19 18 17 16 15 14 17 19 19 16 16 16 16 18 17 17 17 16 15
30 28 26 23 20 19 18 18 17 16 18 19 16 16 16 19 20 18 18 17 17 16
33 31 28 25 25 22 20 20 20 18 17 18 19 19 17 21 21 20 20 19 20 19
33 30 27 28 26 26 24 20 20 21 20 21 19 15 18 19 19 19 19 20 19 22
34 31 29 27 27 24 24 21 21 23 24 21 10 10 10 13 15 16 18 20 20 23
33 29 27 26 25 26 26 28 28 26 22 10 8 19 26 25 21 19 18 17 20 22
30 26 25 24 23 21 22 26 27 27 9 10 13 15 22 32 25 28 24 30 21 20
22 20 20 19 18 18 19 14 14 11 5 19 19 22 19 24 32 31 33 27 27 28
15 11 11 10 5 6 8 14 13 14 8 8 18 20 21 17 26 32 23 33 29 25
13 12 6 5 12 11 11 11 13 13 10 6 1 1 5 10 19 19 26 24 19 17
16 19 16 12 11 10 10 11 11 10 9 6 4 3 3 5 9 13 13 11 10 11
14 15 13 12 10 9 10 10 10 11 11 10 8 6 4 3 3 5 6 7 8 8
11 12 12 10 9 9 9 9 8 12 14 14 12 11 11 11 9 9 9 6 4 6
10 10 9 8 7 7 8 8 9 10 11 13 12 10 10 9 10 9 9 9 9 10
Wind_Direction
238 240 244 248 249 251 259 248 249 242 238 236 238 239 243 250 254 257 260 265 260 258
242 240 240 246 246 249 255 255 261 256 241 237 237 235 240 246 254 255 255 261 266 264
243 245 246 251 251 250 253 256 259 254 251 248 246 242 247 248 250 256 258 262 261 267
244 247 247 250 255 254 256 259 254 256 259 253 258 257 264 268 264 265 270 269 266 272
247 248 249 250 254 258 254 256 260 263 259 260 278 289 294 289 283 272 277 280 288 288
246 247 250 255 258 260 262 264 266 267 263 258 96 76 29 358 320 302 309 306 311 301
243 247 252 255 260 266 270 273 276 277 245 126 105 6 342 321 311 259 263 270 296 294
242 251 257 261 268 278 282 299 324 309 260 197 210 242 266 246 257 229 233 259 287 291
236 231 240 265 323 328 355 11 53 66 80 188 219 217 263 250 237 227 249 290 290 300
104 98 76 52 74 77 61 57 56 63 72 90 207 336 243 247 242 245 264 281 301 308
89 93 98 93 85 80 68 60 56 56 58 63 59 1 319 283 271 270 281 291 305 311
99 99 100 94 85 76 69 61 52 48 55 50 43 35 2 333 320 300 304 313 314 325
92 93 94 90 79 70 62 48 70 71 63 53 43 35 33 35 29 20 5 1 8 11
89 93 97 89 75 69 63 80 98 75 57 46 45 43 34 32 26 25 24 38 26 17
Height
810 810 811 813 814 814 814 815 817 817 818 819 820 822 823 823 824 824 824 824 825 825
805 807 808 810 811 811 812 814 814 815 816 817 818 819 820 820 820 820 820 820 821 821
801 803 806 808 808 809 810 811 812 813 814 815 815 815 816 815 816 817 817 817 816 815
798 800 803 804 804 805 807 808 809 810 809 810 812 815 816 817 817 817 816 816 815 812
794 797 798 800 801 803 803 804 805 804 805 809 814 815 815 814 813 811 812 811 811 810
791 793 795 797 798 800 801 801 800 800 803 807 813 814 815 816 811 811 808 805 806 806
789 791 793 794 795 799 798 797 798 798 801 808 809 808 804 807 797 797 799 799 801 803
786 791 792 793 795 795 793 791 791 790 789 793 791 795 793 795 792 791 792 796 797 798
785 791 791 793 793 793 792 791 795 792 792 794 793 792 791 793 795 792 792 794 792 793
787 789 790 791 793 794 796 796 797 794 795 794 794 794 793 795 794 791 792 792 790 789
788 789 794 795 796 797 797 797 796 796 795 794 793 793 793 790 789 790 790 790 788 787
792 793 795 797 798 798 798 797 797 795 794 793 793 793 792 791 790 790 789 788 787 785
795 796 797 798 799 799 799 797 797 796 796 795 794 792 790 790 791 790 789 788 786 783
797 798 799 800 801 800 800 799 798 798 797 797 796 794 793 793 791 790 789 787 785 782